�������l�o���
Date,Time,MP-1(��Sv/h),MP-2(��Sv/h),MP-3(��Sv/h),MP-4(��Sv/h),MP-5(��Sv/h),MP-6(��Sv/h),MP-7(��Sv/h),MP-8(��Sv/h),����,����(m/s),���J
2024/02/27,00:00,0.497,0.751,0.473,0.933,0.671,0.305,0.549,0.516,�k��,11.4,��
2024/02/27,00:10,0.498,0.751,0.473,0.935,0.672,0.305,0.549,0.516,�k��,10.8,��
2024/02/27,00:20,0.499,0.752,0.473,0.934,0.673,0.305,0.549,0.518,�k��,9.2,��
2024/02/27,00:30,0.497,0.753,0.475,0.934,0.673,0.305,0.549,0.517,�k��,7.8,��
2024/02/27,00:40,0.499,0.751,0.474,0.937,0.673,0.307,0.548,0.517,�k��,10.5,��
2024/02/27,00:50,0.498,0.752,0.476,0.934,0.674,0.307,0.549,0.516,�k��,8.6,��
2024/02/27,01:00,0.499,0.754,0.476,0.935,0.674,0.307,0.549,0.518,�k��,12.0,��
2024/02/27,01:10,0.498,0.753,0.476,0.933,0.674,0.308,0.549,0.518,�k��,11.8,��
2024/02/27,01:20,0.496,0.752,0.476,0.935,0.673,0.307,0.549,0.516,�k��,11.6,��
2024/02/27,01:30,0.496,0.752,0.476,0.935,0.673,0.308,0.550,0.516,�k��,11.1,��
2024/02/27,01:40,0.498,0.752,0.478,0.936,0.674,0.308,0.550,0.516,�k��,11.6,��
2024/02/27,01:50,0.499,0.753,0.476,0.933,0.674,0.307,0.550,0.517,�k��,10.2,��
2024/02/27,02:00,0.498,0.751,0.477,0.935,0.672,0.307,0.548,0.518,�k��,10.3,��
2024/02/27,02:10,0.499,0.753,0.476,0.934,0.675,0.307,0.550,0.517,�k��,10.7,��
2024/02/27,02:20,0.498,0.753,0.476,0.936,0.674,0.307,0.551,0.517,�k��,9.7,��
2024/02/27,02:30,0.496,0.751,0.476,0.933,0.674,0.308,0.550,0.516,�k��,10.3,��
2024/02/27,02:40,0.499,0.752,0.476,0.936,0.674,0.308,0.549,0.518,�k��,10.2,��
2024/02/27,02:50,0.499,0.752,0.476,0.934,0.673,0.307,0.548,0.517,�k��,8.8,��
2024/02/27,03:00,0.498,0.752,0.477,0.935,0.674,0.307,0.549,0.517,�k��,9.3,��
2024/02/27,03:10,0.499,0.752,0.475,0.934,0.674,0.307,0.550,0.517,�k��,7.7,��
2024/02/27,03:20,0.499,0.752,0.477,0.937,0.674,0.307,0.548,0.518,�k��,10.2,��
2024/02/27,03:30,0.498,0.752,0.476,0.937,0.673,0.308,0.550,0.516,�k��,9.3,��
2024/02/27,03:40,0.499,0.753,0.476,0.936,0.674,0.308,0.549,0.517,�k��,8.8,��
2024/02/27,03:50,0.499,0.753,0.477,0.936,0.674,0.307,0.549,0.517,�k��,10.0,��
2024/02/27,04:00,0.499,0.754,0.476,0.936,0.675,0.306,0.550,0.516,�k��,6.8,��
2024/02/27,04:10,0.499,0.753,0.477,0.937,0.674,0.308,0.549,0.518,�k��,9.7,��
2024/02/27,04:20,0.500,0.754,0.476,0.938,0.673,0.307,0.549,0.517,�k��,6.2,��
2024/02/27,04:30,0.498,0.753,0.475,0.936,0.675,0.307,0.550,0.516,�k��,9.4,��
2024/02/27,04:40,0.498,0.754,0.475,0.935,0.674,0.308,0.548,0.517,�k��,8.3,��
2024/02/27,04:50,0.499,0.752,0.478,0.937,0.674,0.308,0.550,0.517,�k��,5.6,��
2024/02/27,05:00,0.498,0.753,0.476,0.936,0.674,0.307,0.548,0.516,�k��,5.3,��
2024/02/27,05:10,0.500,0.753,0.476,0.936,0.676,0.309,0.550,0.517,�k��,4.4,��
2024/02/27,05:20,0.498,0.753,0.476,0.936,0.675,0.307,0.550,0.516,�k��,7.2,��
2024/02/27,05:30,0.498,0.755,0.475,0.936,0.673,0.307,0.549,0.515,�k��,8.5,��
2024/02/27,05:40,0.499,0.751,0.475,0.936,0.674,0.308,0.550,0.517,�k��,9.2,��
2024/02/27,05:50,0.500,0.752,0.476,0.936,0.673,0.306,0.549,0.516,�k��,10.2,��
2024/02/27,06:00,0.498,0.753,0.476,0.936,0.675,0.306,0.551,0.517,�k��,11.6,��
2024/02/27,06:10,0.500,0.753,0.476,0.938,0.672,0.306,0.550,0.517,�k��,8.5,��
2024/02/27,06:20,0.497,0.754,0.475,0.938,0.672,0.308,0.548,0.516,�k��,11.8,��
2024/02/27,06:30,0.497,0.752,0.476,0.938,0.675,0.306,0.550,0.516,�k��,11.8,��
2024/02/27,06:40,0.499,0.753,0.476,0.936,0.672,0.308,0.549,0.515,�k��,12.2,��
2024/02/27,06:50,0.498,0.753,0.475,0.936,0.673,0.307,0.550,0.517,���k��,11.9,��
2024/02/27,07:00,0.499,0.752,0.475,0.937,0.672,0.307,0.550,0.518,���k��,13.5,��
2024/02/27,07:10,0.499,0.754,0.474,0.937,0.672,0.307,0.550,0.517,�k��,11.4,��
2024/02/27,07:20,0.498,0.753,0.476,0.936,0.672,0.307,0.549,0.516,�k��,14.4,��
2024/02/27,07:30,0.499,0.753,0.475,0.941,0.673,0.306,0.547,0.517,�k��,12.4,��
2024/02/27,07:40,0.498,0.752,0.476,0.936,0.674,0.307,0.548,0.517,���k��,12.0,��
2024/02/27,07:50,0.498,0.754,0.477,0.938,0.676,0.307,0.549,0.517,�k��,11.9,��
2024/02/27,08:00,0.500,0.754,0.478,0.941,0.674,0.308,0.548,0.518,���k��,9.8,��
2024/02/27,08:10,0.500,0.754,0.478,0.939,0.676,0.307,0.548,0.518,���k��,10.9,��
2024/02/27,08:20,0.500,0.756,0.476,0.940,0.676,0.308,0.548,0.519,�k��,12.4,��
2024/02/27,08:30,0.500,0.756,0.477,0.941,0.675,0.306,0.550,0.517,�k��,13.1,��
2024/02/27,08:40,0.500,0.754,0.476,0.938,0.676,0.308,0.551,0.518,�k��,11.6,��
2024/02/27,08:50,0.500,0.754,0.477,0.939,0.676,0.308,0.549,0.519,�k��,10.7,��
2024/02/27,09:00,0.500,0.754,0.476,0.939,0.676,0.308,0.550,0.518,�k��,11.1,��
2024/02/27,09:10,0.500,0.755,0.478,0.937,0.675,0.307,0.549,0.518,�k�k��,11.7,��
2024/02/27,09:20,0.499,0.756,0.477,0.941,0.676,0.307,0.551,0.520,�k�k��,12.5,��
2024/02/27,09:30,0.500,0.756,0.477,0.937,0.677,0.308,0.553,0.518,�k�k��,12.1,�L
2024/02/27,09:40,0.500,0.755,0.478,0.944,0.676,0.307,0.551,0.519,�k��,10.2,�L
2024/02/27,09:50,0.501,0.756,0.478,0.943,0.677,0.309,0.551,0.519,�k��,13.0,�L
2024/02/27,10:00,0.503,0.756,0.478,0.941,0.678,0.309,0.550,0.520,�k��,12.1,�L
2024/02/27,10:10,0.501,0.756,0.477,0.943,0.677,0.309,0.547,0.518,�k��,12.4,�L
2024/02/27,10:20,0.504,0.756,0.478,0.942,0.677,0.310,0.547,0.520,�k��,10.7,�L
2024/02/27,10:30,0.500,0.754,0.476,0.941,0.676,0.310,0.546,0.520,�k��,9.0,�L
2024/02/27,10:40,0.502,0.752,0.477,0.941,0.672,0.309,0.549,0.519,�k��,10.2,�L
2024/02/27,10:50,0.500,0.752,0.477,0.941,0.674,0.309,0.548,0.518,�k��,13.1,�L
2024/02/27,11:00,0.498,0.750,0.476,0.940,0.675,0.308,0.549,0.518,�k��,12.4,�L
2024/02/27,11:10,0.497,0.751,0.477,0.939,0.672,0.309,0.549,0.519,�k��,12.1,��
2024/02/27,11:20,0.497,0.750,0.476,0.940,0.670,0.308,0.547,0.517,�k��,9.7,�L
2024/02/27,11:30,0.499,0.753,0.476,0.941,0.674,0.308,0.549,0.517,�k��,9.8,�L
2024/02/27,11:40,0.497,0.753,0.475,0.939,0.673,0.309,0.549,0.519,�k��,9.6,�L
2024/02/27,11:50,0.499,0.753,0.476,0.941,0.674,0.310,0.550,0.517,�k��,12.7,�L
2024/02/27,12:00,0.499,0.754,0.477,0.939,0.676,0.311,0.549,0.518,�k��,13.6,�L
2024/02/27,12:10,0.500,0.753,0.477,0.941,0.677,0.308,0.548,0.519,�k��,11.7,�L
2024/02/27,12:20,0.499,0.754,0.477,0.940,0.676,0.310,0.549,0.517,�k�k��,10.9,�L
2024/02/27,12:30,0.499,0.754,0.478,0.938,0.676,0.309,0.550,0.517,�k�k��,11.3,�L
2024/02/27,12:40,0.499,0.755,0.478,0.940,0.675,0.309,0.550,0.519,�k�k��,10.5,�L
2024/02/27,12:50,0.498,0.752,0.477,0.941,0.676,0.310,0.551,0.517,�k�k��,12.5,�L
2024/02/27,13:00,0.499,0.752,0.479,0.940,0.674,0.309,0.550,0.517,�k��,11.4,�L
2024/02/27,13:10,0.499,0.755,0.476,0.939,0.674,0.308,0.550,0.517,�k�k��,10.2,��
2024/02/27,13:20,0.499,0.752,0.477,0.938,0.675,0.308,0.552,0.518,�k��,12.7,�L
2024/02/27,13:30,0.498,0.754,0.476,0.940,0.674,0.308,0.550,0.518,�k��,8.9,��
2024/02/27,13:40,0.499,0.753,0.476,0.938,0.676,0.308,0.551,0.518,�k��,10.8,��
2024/02/27,13:50,0.499,0.752,0.478,0.938,0.675,0.307,0.551,0.515,�k��,10.9,��
2024/02/27,14:00,0.498,0.752,0.478,0.938,0.674,0.309,0.549,0.517,�k��,11.1,��
2024/02/27,14:10,0.499,0.754,0.476,0.940,0.674,0.309,0.549,0.516,�k��,10.2,��
2024/02/27,14:20,0.499,0.751,0.476,0.939,0.675,0.308,0.550,0.515,�k�k��,12.5,��
2024/02/27,14:30,0.499,0.753,0.476,0.941,0.673,0.308,0.550,0.516,�k��,9.7,��
2024/02/27,14:40,0.499,0.752,0.477,0.939,0.676,0.308,0.550,0.518,�k��,12.4,��
2024/02/27,14:50,0.500,0.751,0.477,0.939,0.674,0.308,0.550,0.516,�k��,11.3,��
2024/02/27,15:00,0.498,0.753,0.478,0.937,0.674,0.307,0.549,0.518,�k��,10.8,��
2024/02/27,15:10,0.499,0.753,0.478,0.938,0.674,0.308,0.550,0.517,�k��,9.1,��
2024/02/27,15:20,0.499,0.753,0.478,0.941,0.675,0.307,0.549,0.516,�k��,11.0,��
2024/02/27,15:30,0.498,0.751,0.476,0.940,0.676,0.308,0.549,0.517,�k��,9.7,��
2024/02/27,15:40,0.499,0.753,0.476,0.939,0.675,0.307,0.550,0.517,�k��,8.6,��
2024/02/27,15:50,0.499,0.753,0.479,0.939,0.675,0.308,0.549,0.517,�k��,9.0,��
2024/02/27,16:00,0.498,0.754,0.477,0.941,0.676,0.307,0.551,0.517,�k��,8.6,��
2024/02/27,16:10,0.499,0.754,0.477,0.940,0.675,0.308,0.551,0.518,�k��,9.3,��
2024/02/27,16:20,0.500,0.754,0.478,0.941,0.678,0.308,0.551,0.517,�k��,8.8,��
2024/02/27,16:30,0.499,0.754,0.476,0.939,0.677,0.308,0.550,0.516,�k�k��,7.1,��
2024/02/27,16:40,0.499,0.753,0.477,0.940,0.676,0.307,0.550,0.517,�k�k��,8.1,��
2024/02/27,16:50,0.498,0.752,0.475,0.938,0.676,0.307,0.550,0.516,�k�k��,7.0,��
2024/02/27,17:00,0.499,0.754,0.478,0.940,0.677,0.306,0.551,0.516,�k�k��,9.4,��
2024/02/27,17:10,0.498,0.753,0.478,0.942,0.675,0.307,0.551,0.516,�k�k��,9.9,��
2024/02/27,17:20,0.498,0.755,0.477,0.941,0.676,0.309,0.552,0.517,�k�k��,7.8,��
2024/02/27,17:30,0.499,0.754,0.477,0.939,0.675,0.307,0.550,0.516,�k�k��,7.7,��
2024/02/27,17:40,0.497,0.755,0.478,0.942,0.676,0.307,0.550,0.515,�k�k��,6.5,��
2024/02/27,17:50,0.499,0.755,0.478,0.940,0.675,0.308,0.549,0.516,�k�k��,6.8,��
2024/02/27,18:00,0.498,0.755,0.476,0.941,0.674,0.308,0.550,0.515,�k�k��,6.6,��
2024/02/27,18:10,0.499,0.754,0.478,0.940,0.677,0.307,0.550,0.515,�k�k��,5.3,��
2024/02/27,18:20,0.499,0.755,0.477,0.941,0.675,0.308,0.550,0.516,�k�k��,7.6,��
2024/02/27,18:30,0.498,0.754,0.477,0.939,0.674,0.308,0.549,0.517,�k�k��,9.2,��
2024/02/27,18:40,0.499,0.754,0.476,0.944,0.676,0.307,0.550,0.515,�k�k��,8.7,��
2024/02/27,18:50,0.500,0.752,0.477,0.943,0.675,0.308,0.550,0.514,�k�k��,8.4,��
2024/02/27,19:00,0.498,0.755,0.477,0.939,0.677,0.307,0.551,0.515,�k�k��,8.4,��
2024/02/27,19:10,0.499,0.754,0.478,0.941,0.676,0.307,0.550,0.515,�k�k��,7.9,��
2024/02/27,19:20,0.498,0.756,0.478,0.941,0.674,0.308,0.550,0.515,�k�k��,7.9,��
2024/02/27,19:30,0.497,0.755,0.476,0.940,0.675,0.308,0.551,0.515,�k,8.0,��
2024/02/27,19:40,0.498,0.753,0.478,0.939,0.676,0.307,0.550,0.516,�k�k��,9.1,��
2024/02/27,19:50,0.498,0.757,0.477,0.941,0.675,0.308,0.550,0.516,�k�k��,9.3,��
2024/02/27,20:00,0.499,0.752,0.477,0.940,0.677,0.306,0.550,0.515,�k�k��,8.5,��
2024/02/27,20:10,0.499,0.754,0.476,0.941,0.675,0.307,0.549,0.515,�k�k��,9.3,��
2024/02/27,20:20,0.498,0.755,0.476,0.941,0.677,0.308,0.549,0.516,�k�k��,7.9,��
2024/02/27,20:30,0.498,0.754,0.477,0.941,0.676,0.307,0.550,0.516,�k�k��,7.3,��
2024/02/27,20:40,0.497,0.754,0.477,0.942,0.674,0.306,0.548,0.515,�k�k��,7.0,��
2024/02/27,20:50,0.499,0.753,0.477,0.942,0.676,0.308,0.550,0.514,�k�k��,6.8,��
2024/02/27,21:00,0.499,0.753,0.476,0.941,0.675,0.307,0.550,0.515,�k�k��,7.1,��
2024/02/27,21:10,0.498,0.755,0.477,0.940,0.677,0.308,0.548,0.515,�k�k��,7.5,��
2024/02/27,21:20,0.500,0.754,0.475,0.940,0.673,0.308,0.549,0.516,�k�k��,8.1,��
2024/02/27,21:30,0.498,0.754,0.477,0.941,0.673,0.308,0.550,0.514,�k�k��,7.7,��
2024/02/27,21:40,0.499,0.754,0.476,0.939,0.677,0.307,0.548,0.515,�k�k��,7.1,��
2024/02/27,21:50,0.498,0.751,0.477,0.941,0.676,0.308,0.549,0.516,�k�k��,5.9,��
2024/02/27,22:00,0.498,0.754,0.477,0.939,0.676,0.307,0.549,0.514,�k�k��,6.3,��
2024/02/27,22:10,0.499,0.754,0.478,0.941,0.676,0.308,0.548,0.516,�k�k��,6.2,��
2024/02/27,22:20,0.499,0.753,0.477,0.938,0.674,0.307,0.549,0.513,�k�k��,5.4,��
2024/02/27,22:30,0.498,0.756,0.475,0.939,0.674,0.308,0.550,0.516,�k�k��,6.2,��
2024/02/27,22:40,0.497,0.754,0.476,0.941,0.675,0.309,0.549,0.514,�k�k��,5.3,��
2024/02/27,22:50,0.498,0.755,0.475,0.941,0.677,0.308,0.548,0.514,�k�k��,5.1,��
2024/02/27,23:00,0.499,0.754,0.476,0.941,0.676,0.308,0.549,0.515,�k�k��,5.5,��
2024/02/27,23:10,0.498,0.754,0.476,0.939,0.676,0.306,0.548,0.515,�k�k��,5.3,��
2024/02/27,23:20,0.496,0.754,0.475,0.940,0.675,0.307,0.548,0.516,�k�k��,5.0,��
2024/02/27,23:30,0.499,0.754,0.475,0.940,0.675,0.308,0.548,0.515,�k�k��,6.7,��
2024/02/27,23:40,0.497,0.755,0.475,0.941,0.674,0.307,0.549,0.514,�k��,8.3,��
2024/02/27,23:50,0.498,0.754,0.476,0.941,0.676,0.307,0.550,0.515,�k��,7.0,��
